M I D A S
Marine Information and Data Acquisition System
Tripno 441 of the Zeeleeuw from 2003-02-26 07:37:27 to 2003-02-26 17:27:41
Back to CruiseResearch ActivitiesStationsMapUnderway DataData graphs

EquipmentUnitsComments
TimeDGPSUTC
LatitudeDGPSDM.mWGS84
LongitudeDGPSDM.mWGS84
SpeedMeteo Stationm/sRelative wind speed
DirectionMeteo StationdegRelative wind direction
TemperatureMeteo Stationdeg CelciusAir temperature
PressureMeteo StationPaAtmospheric pressure
HumidityMeteo Station%Relative humidity
Missing or incorrect values are displayed as -999
Metereological data collected by the RV Zeeleeuw from 2003-02-26 07:37:27 to 2003-02-26 17:27:41
Time Latitude Longitude Speed Direction Temperature Pressure Humidity
2003-02-26 07:38 51°13.595 2°56.1 0.9 243 2.9 101250 67
2003-02-26 07:39 51°13.616 2°56.025 0.3 79 2.8 101250 67
2003-02-26 07:40 51°13.628 2°55.973 1 231 2.8 101250 68
2003-02-26 07:41 51°13.66 2°55.877 0.3 57 2.8 101250 68
2003-02-26 07:42 51°13.692 2°55.781 0.6 167 2.9 101250 69
2003-02-26 07:43 51°13.699 2°55.755 2.5 160 2.9 101240 68
2003-02-26 07:44 51°13.693 2°55.742 2.1 127 2.8 101250 69
2003-02-26 07:45 51°13.694 2°55.737 1.9 115 2.8 101240 69
2003-02-26 07:46 51°13.728 2°55.717 0.8 118 2.8 101240 69
2003-02-26 07:47 51°13.809 2°55.651 1.4 209 2.8 101240 69
2003-02-26 07:48 51°13.924 2°55.566 2.3 214 2.8 101240 70
2003-02-26 07:49 51°14.041 2°55.48 1.3 207 2.9 101240 69
2003-02-26 07:50 51°14.161 2°55.388 1.4 184 2.9 101240 68
2003-02-26 07:51 51°14.263 2°55.263 0.9 208 2.9 101240 67
2003-02-26 07:52 51°14.345 2°55.094 0.4 288 3 101240 67
2003-02-26 07:53 51°14.477 2°54.942 2.6 176 3.1 101230 67
2003-02-26 07:54 51°14.656 2°54.831 2.9 176 3.1 101230 66
2003-02-26 07:55 51°14.83 2°54.696 2.6 181 3.2 101230 67
2003-02-26 07:56 51°15.005 2°54.565 3.3 178 3.2 101230 68
2003-02-26 07:57 51°15.186 2°54.435 3.8 188 3.1 101230 68
2003-02-26 07:58 51°15.37 2°54.337 3.7 192 3 101240 69
2003-02-26 07:59 51°15.562 2°54.242 3.7 186 3.1 101230 70
2003-02-26 08:00 51°15.756 2°54.195 4 189 3.2 101230 70
2003-02-26 08:01 51°15.94 2°54.156 5 172 3.2 101230 70
2003-02-26 08:02 51°16.103 2°54.15 4.7 184 3.2 101230 70
2003-02-26 08:03 51°16.207 2°54.32 8.5 216 3.1 101220 70
2003-02-26 08:04 51°16.271 2°54.515 5.7 175 3.2 101220 70
2003-02-26 08:05 51°16.351 2°54.534 3.1 86 3.2 101230 70
2003-02-26 08:06 51°16.383 2°54.48 3.4 353 3.2 101230 70
2003-02-26 08:07 51°16.38 2°54.442 1.8 328 3.3 101240 69
2003-02-26 08:08 51°16.364 2°54.423 3 303 3.3 101230 70
2003-02-26 08:09 51°16.334 2°54.404 2.7 313 3.4 101230 70
2003-02-26 08:10 51°16.31 2°54.376 1.2 330 3.4 101230 70
2003-02-26 08:11 51°16.299 2°54.341 2.1 344 3.3 101230 70
2003-02-26 08:12 51°16.293 2°54.311 1.4 330 3.3 101230 70
2003-02-26 08:13 51°16.287 2°54.288 1.1 324 3.3 101230 70
2003-02-26 08:14 51°16.278 2°54.275 1.4 319 3.3 101230 70
2003-02-26 08:15 51°16.268 2°54.268 2.9 293 3.4 101230 70
2003-02-26 08:16 51°16.26 2°54.269 2.9 306 3.3 101230 70
2003-02-26 08:17 51°16.25 2°54.273 3.5 304 3.4 101230 71
2003-02-26 08:18 51°16.241 2°54.281 3.9 302 3.4 101230 70
2003-02-26 08:19 51°16.232 2°54.291 4.8 300 3.4 101230 71
2003-02-26 08:20 51°16.223 2°54.303 4.9 293 3.4 101230 70
2003-02-26 08:21 51°16.214 2°54.317 5.2 293 3.4 101230 70
2003-02-26 08:22 51°16.206 2°54.333 5.7 288 3.4 101230 70
2003-02-26 08:23 51°16.148 2°54.341 6.7 285 3.4 101220 69
2003-02-26 08:24 51°16.072 2°54.227 3.5 306 3.5 101230 70
2003-02-26 08:25 51°16.071 2°53.977 3.2 282 3.5 101230 70
2003-02-26 08:26 51°16.162 2°53.659 3 220 3.5 101230 70
2003-02-26 08:27 51°16.328 2°53.412 4.2 207 3.5 101230 69
2003-02-26 08:28 51°16.521 2°53.195 3.7 200 3.5 101230 69
2003-02-26 08:29 51°16.722 2°52.986 4.2 203 3.5 101230 71
2003-02-26 08:30 51°16.917 2°52.79 4.1 204 3.4 101230 70
2003-02-26 08:31 51°17.117 2°52.587 3.9 200 3.5 101220 71
2003-02-26 08:32 51°17.315 2°52.381 3.5 195 3.4 101220 71
2003-02-26 08:33 51°17.516 2°52.18 3.8 192 3.4 101220 71
2003-02-26 08:34 51°17.729 2°52.01 3.9 197 3.5 101220 71
2003-02-26 08:35 51°17.942 2°51.839 4 195 3.5 101220 72
2003-02-26 08:36 51°18.162 2°51.674 4.1 193 3.5 101220 72
2003-02-26 08:37 51°18.38 2°51.541 4.1 183 3.5 101220 73
2003-02-26 08:38 51°18.525 2°51.367 1.2 286 3.6 101220 74
2003-02-26 08:39 51°18.502 2°51.217 0.5 330 3.6 101220 74
2003-02-26 08:40 51°18.497 2°51.108 0.9 336 3.6 101220 73
2003-02-26 08:41 51°18.484 2°51.041 0.6 328 3.6 101220 73
2003-02-26 08:42 51°18.477 2°51.024 1.3 326 3.6 101210 72
2003-02-26 08:43 51°18.473 2°51.018 1 327 3.6 101220 72
2003-02-26 08:44 51°18.471 2°51.019 1.9 307 3.7 101220 72
2003-02-26 08:45 51°18.471 2°51.024 2.6 305 3.7 101220 72
2003-02-26 08:46 51°18.471 2°51.033 2.6 312 3.7 101210 71
2003-02-26 08:47 51°18.474 2°51.043 2.3 305 3.7 101220 72
2003-02-26 08:48 51°18.477 2°51.055 2.6 313 3.8 101220 72
2003-02-26 08:49 51°18.481 2°51.069 4.6 305 3.7 101220 72
2003-02-26 08:50 51°18.485 2°51.083 3.5 314 3.7 101220 71
2003-02-26 08:51 51°18.49 2°51.098 4.2 302 3.7 101220 71
2003-02-26 08:52 51°18.486 2°51.113 6.3 283 3.8 101220 71
2003-02-26 08:53 51°18.436 2°51.186 8.5 239 3.8 101200 71
2003-02-26 08:54 51°18.444 2°51.408 9.8 211 3.8 101210 71
2003-02-26 08:55 51°18.52 2°51.746 11.8 218 3.8 101200 72
2003-02-26 08:56 51°18.606 2°52.121 11.5 217 3.9 101200 73
2003-02-26 08:57 51°18.698 2°52.502 11.5 214 3.8 101200 72
2003-02-26 08:58 51°18.788 2°52.876 11.3 218 3.9 101200 72
2003-02-26 08:59 51°18.876 2°53.244 11.6 220 3.9 101210 73
2003-02-26 09:00 51°18.968 2°53.625 12 219 4 101210 74
2003-02-26 09:01 51°19.06 2°53.999 11.4 221 3.9 101210 72
2003-02-26 09:02 51°19.15 2°54.374 12.5 221 3.9 101210 73
2003-02-26 09:03 51°19.241 2°54.748 12.4 222 3.9 101210 72
2003-02-26 09:04 51°19.33 2°55.123 12.6 224 3.8 101220 73
2003-02-26 09:05 51°19.421 2°55.496 12.9 221 3.7 101220 72
2003-02-26 09:06 51°19.511 2°55.867 11.7 221 3.7 101210 72
2003-02-26 09:07 51°19.6 2°56.233 11.6 223 3.7 101220 73
2003-02-26 09:08 51°19.694 2°56.612 11.8 221 3.7 101210 73
2003-02-26 09:09 51°19.784 2°56.984 12.7 219 3.7 101210 72
2003-02-26 09:10 51°19.875 2°57.356 11.7 220 3.7 101210 72
2003-02-26 09:11 51°19.967 2°57.726 11.6 221 3.7 101220 72
2003-02-26 09:12 51°20.058 2°58.097 11.3 220 3.8 101220 72
2003-02-26 09:13 51°20.147 2°58.463 11.5 221 3.8 101220 73
2003-02-26 09:14 51°20.238 2°58.839 12.4 220 3.8 101220 73
2003-02-26 09:15 51°20.328 2°59.21 12.2 217 3.7 101220 72
2003-02-26 09:16 51°20.418 2°59.582 13 216 3.8 101220 71
2003-02-26 09:17 51°20.507 2°59.953 12.2 219 3.8 101220 71
2003-02-26 09:18 51°20.595 3°0.323 12.5 219 3.8 101220 71
2003-02-26 09:19 51°20.682 3°0.695 11.3 217 3.8 101220 70
2003-02-26 09:20 51°20.77 3°1.068 12.1 221 4 101230 70
2003-02-26 09:21 51°20.856 3°1.438 11.5 215 4 101230 71
2003-02-26 09:22 51°20.943 3°1.809 11.5 220 4 101230 73
2003-02-26 09:23 51°21.029 3°2.182 12.2 221 3.9 101230 73
2003-02-26 09:24 51°21.117 3°2.554 12 221 3.9 101230 72
2003-02-26 09:25 51°21.203 3°2.925 12 221 3.8 101230 71
2003-02-26 09:26 51°21.288 3°3.294 11.7 221 3.9 101230 71
2003-02-26 09:27 51°21.369 3°3.668 12.4 218 3.9 101240 70
2003-02-26 09:28 51°21.446 3°4.046 11.6 223 3.9 101240 71
2003-02-26 09:29 51°21.524 3°4.425 12.1 220 3.9 101240 72
2003-02-26 09:30 51°21.6 3°4.805 12.3 222 3.9 101240 71
2003-02-26 09:31 51°21.644 3°5.193 12.4 225 3.9 101230 70
2003-02-26 09:32 51°21.685 3°5.583 11.7 224 4 101230 71
2003-02-26 09:33 51°21.726 3°5.971 12.3 223 4 101240 71
2003-02-26 09:34 51°21.777 3°6.356 11.4 216 4 101240 70
2003-02-26 09:35 51°21.876 3°6.72 11.6 217 4 101240 69
2003-02-26 09:36 51°21.976 3°7.087 10.2 219 4 101240 70
2003-02-26 09:37 51°22.084 3°7.443 10.3 217 4.1 101240 70
2003-02-26 09:38 51°22.184 3°7.768 10.3 212 4.1 101240 69
2003-02-26 09:39 51°22.27 3°8.048 9.3 214 4.1 101240 68
2003-02-26 09:40 51°22.356 3°8.327 9.7 214 4.1 101240 68
2003-02-26 09:41 51°22.467 3°8.585 7.6 201 4.2 101250 68
2003-02-26 09:42 51°22.649 3°8.688 6.4 187 4.1 101240 70
2003-02-26 09:43 51°22.882 3°8.773 8.7 198 3.9 101250 69
2003-02-26 09:44 51°23.082 3°8.999 10.1 212 3.9 101240 69
2003-02-26 09:45 51°23.139 3°9.372 11.2 230 4.1 101250 71
2003-02-26 09:46 51°23.093 3°9.755 12.1 227 4 101250 72
2003-02-26 09:47 51°23.048 3°10.141 12.5 226 4 101250 72
2003-02-26 09:48 51°23.002 3°10.527 13.1 226 4 101240 71
2003-02-26 09:49 51°22.954 3°10.914 12.8 228 4 101240 69
2003-02-26 09:50 51°22.906 3°11.299 12.8 229 4 101240 70
2003-02-26 09:51 51°22.863 3°11.683 12.5 231 4 101250 70
2003-02-26 09:52 51°22.832 3°12.071 12.2 232 4 101260 70
2003-02-26 09:53 51°22.804 3°12.46 11.6 234 4 101250 71
2003-02-26 09:54 51°22.787 3°12.819 9.9 230 4 101260 71
2003-02-26 09:55 51°22.743 3°13.085 7.5 251 4 101260 71
2003-02-26 09:56 51°22.627 3°13.182 7.1 259 4 101260 71
2003-02-26 09:57 51°22.553 3°13.205 3 323 4 101260 70
2003-02-26 09:58 51°22.546 3°13.215 1.3 338 4 101260 70
2003-02-26 09:59 51°22.545 3°13.228 2.3 354 4 101260 70
2003-02-26 10:00 51°22.543 3°13.232 3.9 355 4 101260 70
2003-02-26 10:01 51°22.542 3°13.228 3.4 14 4 101260 70
2003-02-26 10:02 51°22.544 3°13.216 3.8 27 4 101260 70
2003-02-26 10:03 51°22.553 3°13.203 2.9 44 4 101260 70
2003-02-26 10:04 51°22.568 3°13.19 3.4 66 4.2 101250 70
2003-02-26 10:05 51°22.588 3°13.185 4 89 4.2 101250 69
2003-02-26 10:06 51°22.609 3°13.189 3.9 108 4.1 101260 69
2003-02-26 10:07 51°22.629 3°13.199 3.7 113 4.1 101250 70
2003-02-26 10:08 51°22.665 3°13.229 4.6 163 4.1 101260 70
2003-02-26 10:09 51°22.752 3°13.346 6.9 203 4.1 101250 70
2003-02-26 10:10 51°22.917 3°13.562 8.8 207 4 101240 70
2003-02-26 10:11 51°23.099 3°13.811 9.4 207 4 101250 71
2003-02-26 10:12 51°23.283 3°14.062 9.6 210 4 101240 71
2003-02-26 10:13 51°23.463 3°14.318 9.7 204 3.9 101240 70
2003-02-26 10:14 51°23.643 3°14.573 9.7 202 3.9 101240 70
2003-02-26 10:15 51°23.824 3°14.825 9.5 201 3.8 101240 71
2003-02-26 10:16 51°24.004 3°15.079 9.3 198 3.8 101240 71
2003-02-26 10:17 51°24.184 3°15.33 9.2 204 3.8 101240 71
2003-02-26 10:18 51°24.366 3°15.579 9.3 203 3.8 101240 72
2003-02-26 10:19 51°24.547 3°15.826 9.4 200 3.8 101240 72
2003-02-26 10:20 51°24.726 3°16.076 9.1 204 3.8 101240 72
2003-02-26 10:21 51°24.895 3°16.346 10.1 202 3.8 101240 72
2003-02-26 10:22 51°25.057 3°16.631 9.9 200 3.9 101240 72
2003-02-26 10:23 51°25.216 3°16.923 10 204 3.9 101240 73
2003-02-26 10:24 51°25.375 3°17.208 9.7 203 3.9 101240 72
2003-02-26 10:25 51°25.53 3°17.499 10.1 206 4 101250 72
2003-02-26 10:26 51°25.673 3°17.798 9.4 205 4.1 101250 73
2003-02-26 10:27 51°25.785 3°18.021 6.8 193 4.1 101250 73
2003-02-26 10:28 51°25.873 3°18.085 3.4 116 4.1 101260 73
2003-02-26 10:29 51°25.928 3°18.036 2.4 30 4.1 101270 73
2003-02-26 10:30 51°25.94 3°17.975 1.7 341 4.1 101270 73
2003-02-26 10:31 51°25.936 3°17.938 2.3 310 4.2 101270 73
2003-02-26 10:32 51°25.928 3°17.918 4.4 302 4.2 101270 73
2003-02-26 10:33 51°25.919 3°17.903 4.4 306 4.2 101270 73
2003-02-26 10:34 51°25.91 3°17.888 3 313 4.2 101270 73
2003-02-26 10:35 51°25.899 3°17.871 2.7 311 4.2 101270 73
2003-02-26 10:36 51°25.889 3°17.854 3.3 304 4.2 101260 73
2003-02-26 10:37 51°25.879 3°17.836 2.7 304 4.2 101260 73
2003-02-26 10:38 51°25.845 3°17.772 3.4 307 4.3 101260 73
2003-02-26 10:39 51°25.812 3°17.508 4.7 264 4.3 101260 73
2003-02-26 10:40 51°25.781 3°17.157 4.7 268 4.3 101260 73
2003-02-26 10:41 51°25.752 3°16.796 5.3 259 4.4 101260 72
2003-02-26 10:42 51°25.723 3°16.433 5 266 4.4 101260 73
2003-02-26 10:43 51°25.696 3°16.068 5 263 4.4 101260 72
2003-02-26 10:44 51°25.67 3°15.704 4.7 260 4.5 101260 72
2003-02-26 10:45 51°25.644 3°15.34 5 268 4.5 101260 72
2003-02-26 10:46 51°25.618 3°14.976 4.8 267 4.5 101250 72
2003-02-26 10:47 51°25.592 3°14.61 4.6 271 4.5 101250 72
2003-02-26 10:48 51°25.565 3°14.243 4.6 273 4.5 101250 72
2003-02-26 10:49 51°25.539 3°13.873 4.7 266 4.5 101250 72
2003-02-26 10:50 51°25.518 3°13.5 4.2 268 4.5 101250 72
2003-02-26 10:51 51°25.505 3°13.126 4 267 4.5 101250 72
2003-02-26 10:52 51°25.531 3°12.753 3.1 262 4.5 101250 72
2003-02-26 10:53 51°25.571 3°12.384 3.2 248 4.5 101250 72
2003-02-26 10:54 51°25.61 3°12.022 3.5 247 4.5 101250 72
2003-02-26 10:55 51°25.652 3°11.65 3.3 250 4.5 101240 73
2003-02-26 10:56 51°25.734 3°11.327 4.3 192 4.5 101250 73
2003-02-26 10:57 51°25.908 3°11.078 3.6 192 4.3 101240 73
2003-02-26 10:58 51°26.054 3°10.794 2.6 237 4.2 101240 74
2003-02-26 10:59 51°26.123 3°10.437 3.3 242 4.2 101240 74
2003-02-26 11:00 51°26.201 3°10.08 3 236 4.3 101240 74
2003-02-26 11:01 51°26.279 3°9.723 2.8 238 4.3 101250 74
2003-02-26 11:02 51°26.357 3°9.367 3.1 234 4.4 101240 74
2003-02-26 11:03 51°26.433 3°9.031 2 237 4.3 101240 74
2003-02-26 11:04 51°26.479 3°8.806 0.7 348 4.4 101240 74
2003-02-26 11:05 51°26.494 3°8.655 2.7 354 4.4 101240 73
2003-02-26 11:06 51°26.486 3°8.564 0.6 331 4.4 101240 73
2003-02-26 11:07 51°26.473 3°8.507 0.8 318 4.3 101240 73
2003-02-26 11:08 51°26.461 3°8.453 1.6 343 4.2 101240 74
2003-02-26 11:09 51°26.463 3°8.417 3.7 3 4.2 101240 74
2003-02-26 11:10 51°26.471 3°8.399 3.9 4 4.2 101240 75
2003-02-26 11:11 51°26.479 3°8.378 4 357 4.2 101230 75
2003-02-26 11:12 51°26.487 3°8.36 3.3 348 4.2 101240 75
2003-02-26 11:13 51°26.493 3°8.344 1 330 4.1 101230 76
2003-02-26 11:14 51°26.499 3°8.331 0.7 330 4.1 101230 76
2003-02-26 11:15 51°26.481 3°8.305 1.2 328 4.1 101230 77
2003-02-26 11:16 51°26.477 3°8.211 0.7 99 4.1 101230 77
2003-02-26 11:17 51°26.533 3°8.063 1.4 102 4.2 101230 77
2003-02-26 11:18 51°26.595 3°7.9 1.2 103 4.2 101220 77
2003-02-26 11:19 51°26.658 3°7.737 1.3 100 4.2 101230 77
2003-02-26 11:20 51°26.723 3°7.565 0.6 81 4.2 101230 77
2003-02-26 11:21 51°26.791 3°7.401 1.3 95 4.3 101230 77
2003-02-26 11:22 51°26.853 3°7.232 1 88 4.3 101230 77
2003-02-26 11:23 51°26.92 3°7.066 0.3 84 4.3 101230 77
2003-02-26 11:24 51°26.982 3°6.896 0.6 80 4.4 101230 77
2003-02-26 11:25 51°27.043 3°6.726 0.6 58 4.4 101230 77
2003-02-26 11:26 51°27.109 3°6.559 0.9 87 4.5 101230 77
2003-02-26 11:27 51°27.172 3°6.39 0.7 69 4.5 101230 77
2003-02-26 11:28 51°27.239 3°6.224 0.7 108 4.6 101230 77
2003-02-26 11:29 51°27.3 3°6.059 0.6 62 4.6 101220 77
2003-02-26 11:30 51°27.367 3°5.893 0.8 82 4.7 101220 77
2003-02-26 11:31 51°27.43 3°5.727 0.9 77 4.7 101220 76
2003-02-26 11:32 51°27.5 3°5.567 1.2 48 4.7 101230 76
2003-02-26 11:33 51°27.567 3°5.403 1.2 83 4.7 101220 76
2003-02-26 11:34 51°27.636 3°5.243 1.1 74 4.7 101230 76
2003-02-26 11:35 51°27.696 3°5.077 1.3 83 4.7 101220 76
2003-02-26 11:36 51°27.764 3°4.917 1.2 57 4.7 101230 76
2003-02-26 11:37 51°27.825 3°4.755 0.9 92 4.7 101220 76
2003-02-26 11:38 51°27.895 3°4.599 0.8 73 4.7 101230 76
2003-02-26 11:39 51°27.954 3°4.442 1.5 83 4.7 101230 76
2003-02-26 11:40 51°28.018 3°4.286 1 61 4.7 101230 76
2003-02-26 11:41 51°28.07 3°4.144 1.3 39 4.8 101220 77
2003-02-26 11:42 51°28.115 3°4.023 2.2 49 4.9 101210 76
2003-02-26 11:43 51°28.17 3°3.909 2.1 53 5 101220 75
2003-02-26 11:44 51°28.224 3°3.806 2.7 56 4.9 101220 74
2003-02-26 11:45 51°28.254 3°3.734 4.1 24 4.8 101220 75
2003-02-26 11:46 51°28.264 3°3.691 4.2 355 4.7 101210 75
2003-02-26 11:47 51°28.263 3°3.666 1.7 310 4.6 101220 75
2003-02-26 11:48 51°28.254 3°3.653 3.1 310 4.5 101220 76
2003-02-26 11:49 51°28.243 3°3.647 4.6 307 4.5 101220 77
2003-02-26 11:50 51°28.227 3°3.632 1.1 322 4.5 101220 77
2003-02-26 11:51 51°28.213 3°3.602 0.6 329 4.5 101210 77
2003-02-26 11:52 51°28.2 3°3.573 1.3 319 4.4 101210 77
2003-02-26 11:53 51°28.187 3°3.549 0.8 336 4.4 101210 77
2003-02-26 11:54 51°28.181 3°3.517 3.5 1 4.4 101210 77
2003-02-26 11:55 51°28.18 3°3.489 2.6 342 4.5 101210 78
2003-02-26 11:56 51°28.179 3°3.467 1.2 342 4.5 101210 77
2003-02-26 11:57 51°28.178 3°3.453 1.6 325 4.4 101210 77
2003-02-26 11:58 51°28.177 3°3.445 2 321 4.5 101210 77
2003-02-26 11:59 51°28.177 3°3.44 2.6 309 4.5 101210 77
2003-02-26 12:00 51°28.178 3°3.436 3.4 331 4.6 101200 77
2003-02-26 12:01 51°28.178 3°3.435 3.7 302 4.7 101200 77
2003-02-26 12:02 51°28.18 3°3.434 4.8 311 4.7 101200 77
2003-02-26 12:03 51°28.181 3°3.433 4.4 303 4.7 101190 76
2003-02-26 12:04 51°28.183 3°3.434 5.3 301 4.7 101200 76
2003-02-26 12:05 51°28.161 3°3.424 6.4 302 4.8 101190 76
2003-02-26 12:06 51°28.112 3°3.326 2.9 310 4.8 101190 76
2003-02-26 12:07 51°28.054 3°3.031 5.4 284 4.9 101180 76
2003-02-26 12:08 51°27.993 3°2.692 5.2 278 5.1 101180 75
2003-02-26 12:09 51°27.933 3°2.354 5 285 5.2 101180 75
2003-02-26 12:10 51°27.882 3°2.01 4.9 282 5.3 101170 74
2003-02-26 12:11 51°27.834 3°1.663 5.1 284 5.4 101170 74
2003-02-26 12:12 51°27.787 3°1.318 4.7 290 5.5 101180 73
2003-02-26 12:13 51°27.741 3°0.975 4.4 280 5.6 101170 73
2003-02-26 12:14 51°27.693 3°0.632 4.3 277 5.6 101180 72
2003-02-26 12:15 51°27.648 3°0.288 4.5 273 5.7 101170 73
2003-02-26 12:16 51°27.6 2°59.943 4.9 277 5.7 101170 73
2003-02-26 12:17 51°27.552 2°59.598 4.3 274 5.7 101170 73
2003-02-26 12:18 51°27.505 2°59.253 4.6 276 5.6 101170 73
2003-02-26 12:19 51°27.458 2°58.908 4.5 277 5.6 101170 73
2003-02-26 12:20 51°27.408 2°58.563 4.7 280 5.6 101170 73
2003-02-26 12:21 51°27.359 2°58.22 4.2 283 5.7 101170 73
2003-02-26 12:22 51°27.309 2°57.877 4 272 5.7 101160 73
2003-02-26 12:23 51°27.258 2°57.534 4.2 275 5.7 101160 73
2003-02-26 12:24 51°27.205 2°57.188 4.5 272 5.7 101160 73
2003-02-26 12:25 51°27.151 2°56.842 4.4 269 5.7 101160 73
2003-02-26 12:26 51°27.098 2°56.502 4.8 265 5.7 101160 73
2003-02-26 12:27 51°27.045 2°56.154 4.4 256 5.7 101160 73
2003-02-26 12:28 51°26.991 2°55.802 4.4 261 5.7 101160 74
2003-02-26 12:29 51°26.937 2°55.455 5 261 5.6 101160 74
2003-02-26 12:30 51°26.883 2°55.108 5 257 5.6 101150 75
2003-02-26 12:31 51°26.831 2°54.762 6.1 273 5.6 101150 75
2003-02-26 12:32 51°26.781 2°54.42 6.2 274 5.7 101150 75
2003-02-26 12:33 51°26.727 2°54.072 6.5 281 5.8 101160 74
2003-02-26 12:34 51°26.67 2°53.716 6.1 276 5.9 101150 73
2003-02-26 12:35 51°26.613 2°53.36 5.5 274 6 101150 72
2003-02-26 12:36 51°26.556 2°53.007 5.5 280 6.2 101150 71
2003-02-26 12:37 51°26.499 2°52.654 5.8 274 6.3 101150 70
2003-02-26 12:38 51°26.448 2°52.287 5.5 267 6.4 101150 70
2003-02-26 12:39 51°26.4 2°51.928 4.6 277 6.6 101150 68
2003-02-26 12:40 51°26.35 2°51.573 4.5 271 6.7 101150 68
2003-02-26 12:41 51°26.303 2°51.213 4.5 272 6.7 101140 68
2003-02-26 12:42 51°26.256 2°50.856 4.8 269 6.7 101140 68
2003-02-26 12:43 51°26.209 2°50.493 4.8 271 6.7 101140 69
2003-02-26 12:44 51°26.163 2°50.138 4.6 265 6.6 101140 69
2003-02-26 12:45 51°26.117 2°49.782 4.2 269 6.6 101140 70
2003-02-26 12:46 51°26.074 2°49.445 3.4 285 6.5 101140 70
2003-02-26 12:47 51°26.045 2°49.188 2.7 307 6.6 101150 71
2003-02-26 12:48 51°26.02 2°48.959 2.1 312 6.6 101140 71
2003-02-26 12:49 51°25.994 2°48.731 3 305 6.6 101150 71
2003-02-26 12:50 51°25.979 2°48.503 1.1 317 6.7 101140 70
2003-02-26 12:51 51°25.992 2°48.382 3.4 66 6.7 101150 70
2003-02-26 12:52 51°26.009 2°48.355 3.9 97 6.6 101140 70
2003-02-26 12:53 51°26.035 2°48.349 4.6 152 6.5 101140 71
2003-02-26 12:54 51°26.062 2°48.404 6.1 222 6.3 101140 72
2003-02-26 12:55 51°26.041 2°48.467 6.1 258 6.2 101140 73
2003-02-26 12:56 51°26.034 2°48.471 4.8 284 6.3 101140 74
2003-02-26 12:57 51°26.03 2°48.463 4.9 302 6.4 101150 73
2003-02-26 12:58 51°26.026 2°48.452 3 308 6.5 101150 72
2003-02-26 12:59 51°26.022 2°48.437 1.5 328 6.4 101150 72
2003-02-26 13:00 51°26.017 2°48.419 0.9 323 6.4 101140 72
2003-02-26 13:01 51°26.013 2°48.402 0.9 319 6.4 101150 72
2003-02-26 13:02 51°26.008 2°48.384 0.9 318 6.4 101150 72
2003-02-26 13:03 51°26.002 2°48.367 1.2 323 6.4 101140 72
2003-02-26 13:04 51°25.995 2°48.35 1.7 324 6.4 101150 73
2003-02-26 13:05 51°25.988 2°48.333 3 309 6.4 101150 73
2003-02-26 13:06 51°25.965 2°48.321 4.9 279 6.4 101150 73
2003-02-26 13:07 51°25.933 2°48.339 5.7 255 6.6 101140 73
2003-02-26 13:08 51°25.856 2°48.372 6.3 279 6.6 101130 72
2003-02-26 13:09 51°25.741 2°48.199 5.8 274 6.7 101140 71
2003-02-26 13:10 51°25.597 2°47.926 7 264 6.8 101130 71
2003-02-26 13:11 51°25.445 2°47.644 7.4 261 6.8 101130 71
2003-02-26 13:12 51°25.287 2°47.368 7.2 261 6.8 101130 71
2003-02-26 13:13 51°25.131 2°47.098 7.2 262 6.7 101130 72
2003-02-26 13:14 51°24.975 2°46.828 7.8 260 6.7 101130 73
2003-02-26 13:15 51°24.818 2°46.56 7.9 262 6.6 101120 73
2003-02-26 13:16 51°24.661 2°46.293 7.7 261 6.6 101130 74
2003-02-26 13:17 51°24.504 2°46.024 7.9 259 6.5 101130 74
2003-02-26 13:18 51°24.346 2°45.756 8 256 6.4 101120 75
2003-02-26 13:19 51°24.19 2°45.485 9.1 258 6.4 101120 76
2003-02-26 13:20 51°24.031 2°45.213 9 254 6.5 101120 75
2003-02-26 13:21 51°23.874 2°44.943 8.7 257 6.6 101130 74
2003-02-26 13:22 51°23.715 2°44.671 9.2 255 6.6 101120 75
2003-02-26 13:23 51°23.558 2°44.397 9.3 255 6.6 101120 74
2003-02-26 13:24 51°23.401 2°44.124 9.1 255 6.7 101120 74
2003-02-26 13:25 51°23.244 2°43.852 10 254 6.7 101110 73
2003-02-26 13:26 51°23.088 2°43.583 11 257 6.8 101110 72
2003-02-26 13:27 51°22.933 2°43.312 9.9 255 7 101110 70
2003-02-26 13:28 51°22.777 2°43.04 11.5 259 7.1 101110 70
2003-02-26 13:29 51°22.621 2°42.768 10.5 252 7.1 101110 70
2003-02-26 13:30 51°22.465 2°42.494 10.3 253 7 101110 71
2003-02-26 13:31 51°22.31 2°42.221 10.3 253 6.9 101110 72
2003-02-26 13:32 51°22.155 2°41.946 10.2 254 6.9 101110 73
2003-02-26 13:33 51°22.041 2°41.625 9.3 261 6.8 101100 73
2003-02-26 13:34 51°21.957 2°41.277 9.4 263 6.9 101100 72
2003-02-26 13:35 51°21.875 2°40.93 8.8 260 6.9 101100 71
2003-02-26 13:36 51°21.794 2°40.581 8.9 261 6.9 101100 71
2003-02-26 13:37 51°21.712 2°40.23 8.8 258 6.9 101110 71
2003-02-26 13:38 51°21.63 2°39.875 8.9 261 6.9 101100 71
2003-02-26 13:39 51°21.548 2°39.517 9 260 6.9 101100 71
2003-02-26 13:40 51°21.466 2°39.157 8.1 261 7 101100 70
2003-02-26 13:41 51°21.383 2°38.796 8.3 259 7 101100 69
2003-02-26 13:42 51°21.302 2°38.432 8.4 260 7.1 101100 69
2003-02-26 13:43 51°21.22 2°38.066 8.4 261 7.2 101100 68
2003-02-26 13:44 51°21.139 2°37.701 7.9 261 7.3 101100 68
2003-02-26 13:45 51°21.059 2°37.337 7.6 260 7.2 101100 69
2003-02-26 13:46 51°21.01 2°36.959 6.2 254 7.2 101100 69
2003-02-26 13:47 51°21.006 2°36.568 5.9 249 7.2 101100 71
2003-02-26 13:48 51°21.017 2°36.175 5.6 252 7 101110 72
2003-02-26 13:49 51°21.036 2°35.779 5.5 252 6.9 101100 72
2003-02-26 13:50 51°21.065 2°35.386 5.9 243 6.9 101100 72
2003-02-26 13:51 51°21.103 2°34.995 6.5 236 6.9 101110 72
2003-02-26 13:52 51°21.135 2°34.608 5.7 239 6.8 101110 72
2003-02-26 13:53 51°21.164 2°34.226 5.5 242 6.9 101110 72
2003-02-26 13:54 51°21.2 2°33.843 5 247 7 101110 71
2003-02-26 13:55 51°21.238 2°33.457 5.4 242 7.1 101100 70
2003-02-26 13:56 51°21.279 2°33.072 5.3 251 7.2 101100 69
2003-02-26 13:57 51°21.32 2°32.687 4.9 248 7.3 101100 67
2003-02-26 13:58 51°21.361 2°32.304 5 247 7.4 101100 67
2003-02-26 13:59 51°21.401 2°31.922 4.3 252 7.4 101110 67
2003-02-26 14:00 51°21.44 2°31.538 4.8 256 7.5 101100 66
2003-02-26 14:01 51°21.476 2°31.151 4.8 260 7.6 101100 66
2003-02-26 14:02 51°21.484 2°30.76 6.3 258 7.6 101100 67
2003-02-26 14:03 51°21.35 2°30.439 8.8 260 7.6 101090 66
2003-02-26 14:04 51°21.16 2°30.19 8.9 258 7.7 101090 67
2003-02-26 14:05 51°20.951 2°29.995 9.1 256 7.6 101080 68
2003-02-26 14:06 51°20.74 2°29.821 10.1 257 7.6 101080 70
2003-02-26 14:07 51°20.519 2°29.652 10.2 256 7.6 101070 67
2003-02-26 14:08 51°20.294 2°29.53 11.3 247 7.8 101070 65
2003-02-26 14:09 51°20.166 2°29.729 8.9 222 7.9 101080 65
2003-02-26 14:10 51°20.139 2°29.876 5.8 241 7.7 101090 68
2003-02-26 14:11 51°20.107 2°29.915 4.6 226 7.6 101090 69
2003-02-26 14:12 51°20.103 2°29.906 4 212 7.5 101090 69
2003-02-26 14:13 51°20.101 2°29.902 3.5 188 7.4 101090 69
2003-02-26 14:14 51°20.105 2°29.9 3.9 179 7.3 101090 70
2003-02-26 14:15 51°20.114 2°29.897 3.8 170 7.2 101090 71
2003-02-26 14:16 51°20.124 2°29.895 3.8 175 7.1 101090 72
2003-02-26 14:17 51°20.134 2°29.896 3.5 181 7 101090 72
2003-02-26 14:18 51°20.141 2°29.9 3.9 195 6.9 101090 72
2003-02-26 14:19 51°20.142 2°29.906 4.2 207 7 101080 71
2003-02-26 14:20 51°20.136 2°29.912 4.2 219 7.1 101080 71
2003-02-26 14:21 51°20.124 2°29.914 4.4 239 7.2 101080 70
2003-02-26 14:22 51°20.107 2°29.909 4.5 258 7.3 101090 70
2003-02-26 14:23 51°20.085 2°29.893 4.1 275 7.4 101080 70
2003-02-26 14:24 51°20.052 2°29.853 4.6 298 7.5 101090 70
2003-02-26 14:25 51°19.974 2°29.735 6.6 266 7.5 101080 70
2003-02-26 14:26 51°19.854 2°29.551 5.1 279 7.5 101080 71
2003-02-26 14:27 51°19.91 2°29.307 2 192 7.5 101090 71
2003-02-26 14:28 51°20.065 2°29.319 6 196 7.4 101080 71
2003-02-26 14:29 51°20.248 2°29.447 7.6 201 7.2 101070 72
2003-02-26 14:30 51°20.451 2°29.588 7.2 204 7.1 101080 73
2003-02-26 14:31 51°20.655 2°29.73 6.9 202 7.1 101080 72
2003-02-26 14:32 51°20.858 2°29.873 7 200 7.1 101080 71
2003-02-26 14:33 51°21.059 2°30.017 6.4 197 7.1 101070 71
2003-02-26 14:34 51°21.249 2°30.187 6.8 200 7.2 101070 70
2003-02-26 14:35 51°21.429 2°30.374 7.8 201 7.2 101070 70
2003-02-26 14:36 51°21.561 2°30.639 9.1 208 7.2 101080 70
2003-02-26 14:37 51°21.621 2°30.961 10.1 217 7.2 101070 70
2003-02-26 14:38 51°21.583 2°31.298 10.8 219 7.2 101070 71
2003-02-26 14:39 51°21.514 2°31.624 10.7 221 7.2 101070 71
2003-02-26 14:40 51°21.405 2°31.922 11.5 225 7.2 101070 71
2003-02-26 14:41 51°21.287 2°32.214 10.7 229 7.2 101070 72
2003-02-26 14:42 51°21.158 2°32.499 4.4 224 7.1 101070 72
2003-02-26 14:43 51°21.026 2°32.784 11.8 223 7.1 101070 72
2003-02-26 14:44 51°20.892 2°33.068 12.2 225 7 101070 73
2003-02-26 14:45 51°20.76 2°33.354 11.7 219 7 101060 73
2003-02-26 14:46 51°20.62 2°33.636 12.6 222 7.1 101070 72
2003-02-26 14:47 51°20.463 2°33.893 12.4 222 7 101070 72
2003-02-26 14:48 51°20.307 2°34.143 12.3 222 6.9 101070 73
2003-02-26 14:49 51°20.151 2°34.395 12.4 222 6.9 101070 73
2003-02-26 14:50 51°19.998 2°34.643 12.7 220 7 101070 72
2003-02-26 14:51 51°19.84 2°34.884 11.9 220 7.2 101070 71
2003-02-26 14:52 51°19.682 2°35.123 12.7 220 7.2 101070 71
2003-02-26 14:53 51°19.522 2°35.366 12.8 219 7.1 101070 71
2003-02-26 14:54 51°19.36 2°35.614 11.8 220 7.1 101070 71
2003-02-26 14:55 51°19.193 2°35.848 13 222 7.2 101070 71
2003-02-26 14:56 51°19.02 2°36.074 12.6 221 7.4 101070 70
2003-02-26 14:57 51°18.842 2°36.292 13.6 223 7.5 101070 69
2003-02-26 14:58 51°18.651 2°36.478 13.6 226 7.6 101070 68
2003-02-26 14:59 51°18.446 2°36.623 13.6 227 7.6 101060 68
2003-02-26 15:00 51°18.235 2°36.753 13.6 233 7.7 101070 68
2003-02-26 15:01 51°18.005 2°36.768 12.9 236 7.6 101060 68
2003-02-26 15:02 51°17.774 2°36.76 11.9 236 7.5 101060 69
2003-02-26 15:03 51°17.533 2°36.748 13.2 235 7.4 101060 70
2003-02-26 15:04 51°17.297 2°36.723 13.1 240 7.3 101060 70
2003-02-26 15:05 51°17.06 2°36.664 14.1 242 7.3 101050 70
2003-02-26 15:06 51°16.856 2°36.606 11.1 245 7.5 101040 68
2003-02-26 15:07 51°16.724 2°36.559 9.7 245 7.7 101060 66
2003-02-26 15:08 51°16.643 2°36.537 8.4 233 7.8 101070 66
2003-02-26 15:09 51°16.597 2°36.531 7.6 240 7.9 101080 65
2003-02-26 15:10 51°16.562 2°36.536 7.3 201 8 101070 64
2003-02-26 15:11 51°16.553 2°36.566 6.1 163 8.1 101070 64
2003-02-26 15:12 51°16.572 2°36.619 7 163 8 101070 66
2003-02-26 15:13 51°16.598 2°36.693 6.9 173 7.9 101070 66
2003-02-26 15:14 51°16.603 2°36.729 6.6 176 7.8 101080 67
2003-02-26 15:15 51°16.599 2°36.741 4.7 185 7.7 101070 67
2003-02-26 15:16 51°16.594 2°36.744 4.9 183 7.7 101080 67
2003-02-26 15:17 51°16.589 2°36.741 4.7 187 7.5 101080 69
2003-02-26 15:18 51°16.584 2°36.732 5 188 7.3 101070 70
2003-02-26 15:19 51°16.58 2°36.72 5.6 185 7.3 101070 70
2003-02-26 15:20 51°16.576 2°36.706 5.6 184 7.4 101070 69
2003-02-26 15:21 51°16.574 2°36.689 6 181 7.6 101070 68
2003-02-26 15:22 51°16.571 2°36.671 5.3 182 7.7 101070 67
2003-02-26 15:23 51°16.569 2°36.651 5.7 180 7.7 101070 67
2003-02-26 15:24 51°16.566 2°36.63 5.7 178 7.7 101070 67
2003-02-26 15:25 51°16.56 2°36.63 7.8 215 7.9 101070 66
2003-02-26 15:26 51°16.483 2°36.636 9 275 8 101060 65
2003-02-26 15:27 51°16.304 2°36.522 12.8 254 8.1 101030 66
2003-02-26 15:28 51°16.075 2°36.398 12 256 7.9 101030 67
2003-02-26 15:29 51°15.845 2°36.273 12.4 258 7.9 101030 67
2003-02-26 15:30 51°15.615 2°36.146 11.6 256 8 101030 66
2003-02-26 15:31 51°15.389 2°36.03 12.2 255 8 101030 66
2003-02-26 15:32 51°15.154 2°35.912 11.3 254 8.1 101030 66
2003-02-26 15:33 51°14.923 2°35.804 10.9 253 8 101040 66
2003-02-26 15:34 51°14.691 2°35.699 10.7 253 7.8 101040 67
2003-02-26 15:35 51°14.459 2°35.593 10.6 253 7.6 101040 69
2003-02-26 15:36 51°14.228 2°35.509 11.2 248 7.3 101040 70
2003-02-26 15:37 51°13.996 2°35.48 12.8 244 7.1 101030 72
2003-02-26 15:38 51°13.809 2°35.633 12.5 223 7.3 101030 71
2003-02-26 15:39 51°13.728 2°35.938 10.9 223 7.4 101040 71
2003-02-26 15:40 51°13.771 2°36.26 10.6 214 7.1 101040 72
2003-02-26 15:41 51°13.835 2°36.58 10.1 215 6.9 101050 73
2003-02-26 15:42 51°13.89 2°36.905 10.1 217 6.7 101050 74
2003-02-26 15:43 51°13.942 2°37.231 10.6 212 6.7 101040 75
2003-02-26 15:44 51°13.985 2°37.56 10.1 223 7.1 101040 73
2003-02-26 15:45 51°14.025 2°37.889 10.3 217 7.1 101040 72
2003-02-26 15:46 51°14.039 2°38.225 11 218 7.3 101040 72
2003-02-26 15:47 51°14.019 2°38.558 13.1 219 7.4 101040 71
2003-02-26 15:48 51°13.903 2°38.841 13.3 234 7.6 101040 70
2003-02-26 15:49 51°13.686 2°38.93 11.6 250 8 101020 69
2003-02-26 15:50 51°13.455 2°38.826 10.3 256 8.3 101030 66
2003-02-26 15:51 51°13.239 2°38.645 10.5 256 8.4 101040 66
2003-02-26 15:52 51°13.022 2°38.439 11.5 256 8.3 101040 66
2003-02-26 15:53 51°12.811 2°38.222 10.9 255 8.1 101040 68
2003-02-26 15:54 51°12.601 2°38.002 11 256 8.3 101030 67
2003-02-26 15:55 51°12.391 2°37.782 10.1 255 8.6 101030 65
2003-02-26 15:56 51°12.181 2°37.562 10.9 254 8.8 101030 64
2003-02-26 15:57 51°11.971 2°37.341 10.3 255 8.9 101030 63
2003-02-26 15:58 51°11.76 2°37.126 10.7 257 8.9 101030 63
2003-02-26 15:59 51°11.549 2°36.911 10.1 261 8.9 101020 63
2003-02-26 16:00 51°11.338 2°36.695 9.3 258 8.8 101030 63
2003-02-26 16:01 51°11.126 2°36.48 9.7 260 8.7 101030 63
2003-02-26 16:02 51°10.908 2°36.281 11 256 8.6 101040 64
2003-02-26 16:03 51°10.691 2°36.086 12 254 8.3 101030 66
2003-02-26 16:04 51°10.461 2°35.966 12.9 253 8.2 101020 67
2003-02-26 16:05 51°10.224 2°35.862 13.2 252 8.4 101010 64
2003-02-26 16:06 51°10.003 2°35.917 14.7 235 8.7 101010 63
2003-02-26 16:07 51°9.84 2°36.143 13.1 221 8.8 101020 62
2003-02-26 16:08 51°9.792 2°36.464 11.4 213 9.1 101020 58
2003-02-26 16:09 51°9.845 2°36.776 9.4 202 9.6 101020 56
2003-02-26 16:10 51°9.934 2°37.08 9.9 206 10 101020 54
2003-02-26 16:11 51°10.008 2°37.395 10.9 208 10.2 101020 53
2003-02-26 16:12 51°10.083 2°37.709 10.5 215 10.2 101020 54
2003-02-26 16:13 51°10.156 2°38.022 10.4 215 10.1 101020 56
2003-02-26 16:14 51°10.23 2°38.335 10.1 213 10.2 101030 54
2003-02-26 16:15 51°10.302 2°38.65 10.7 217 10.2 101030 55
2003-02-26 16:16 51°10.377 2°38.964 9.9 216 10.3 101020 54
2003-02-26 16:17 51°10.45 2°39.279 10.2 216 10.3 101020 54
2003-02-26 16:18 51°10.524 2°39.591 9.3 216 10.2 101020 55
2003-02-26 16:19 51°10.596 2°39.901 9.6 215 10.2 101020 56
2003-02-26 16:20 51°10.668 2°40.211 9.8 214 9.9 101030 58
2003-02-26 16:21 51°10.74 2°40.522 10.5 217 9.6 101030 59
2003-02-26 16:22 51°10.812 2°40.834 9.9 217 9.4 101030 60
2003-02-26 16:23 51°10.883 2°41.148 10 217 9.2 101030 61
2003-02-26 16:24 51°10.953 2°41.462 10.9 210 9 101030 62
2003-02-26 16:25 51°11.023 2°41.778 10.4 209 8.9 101030 63
2003-02-26 16:26 51°11.075 2°42.041 8 207 9 101040 62
2003-02-26 16:27 51°11.07 2°42.121 5.4 153 9.3 101040 60
2003-02-26 16:28 51°11.072 2°42.109 5.1 121 9.6 101040 58
2003-02-26 16:29 51°11.077 2°42.089 4.4 113 9.8 101040 57
2003-02-26 16:30 51°11.083 2°42.065 4.1 107 9.9 101050 57
2003-02-26 16:31 51°11.09 2°42.04 4.1 108 9.9 101050 57
2003-02-26 16:32 51°11.096 2°42.015 4.7 114 10 101050 57
2003-02-26 16:33 51°11.102 2°41.991 5.2 118 9.9 101050 57
2003-02-26 16:34 51°11.108 2°41.968 5 123 9.8 101050 58
2003-02-26 16:35 51°11.112 2°41.946 4.6 131 9.8 101050 58
2003-02-26 16:36 51°11.131 2°41.985 7.7 200 9.7 101040 59
2003-02-26 16:37 51°11.147 2°42.182 10.6 208 9.8 101030 58
2003-02-26 16:38 51°11.172 2°42.494 10.6 213 9.7 101030 59
2003-02-26 16:39 51°11.189 2°42.83 11.8 212 9.6 101030 59
2003-02-26 16:40 51°11.205 2°43.169 11 213 9.6 101030 60
2003-02-26 16:41 51°11.22 2°43.508 11.4 213 9.5 101030 60
2003-02-26 16:42 51°11.235 2°43.848 12.1 216 9.6 101030 59
2003-02-26 16:43 51°11.269 2°44.18 11.3 208 9.7 101030 58
2003-02-26 16:44 51°11.348 2°44.497 10.4 208 9.9 101030 57
2003-02-26 16:45 51°11.42 2°44.818 10.2 207 10.1 101030 56
2003-02-26 16:46 51°11.49 2°45.14 11 209 10.3 101040 56
2003-02-26 16:47 51°11.56 2°45.464 10.4 209 10.4 101030 55
2003-02-26 16:48 51°11.631 2°45.787 10.3 209 10.4 101030 55
2003-02-26 16:49 51°11.708 2°46.107 10.6 209 10.4 101040 54
2003-02-26 16:50 51°11.782 2°46.425 11 211 10.4 101040 55
2003-02-26 16:51 51°11.864 2°46.739 10.5 210 10.4 101040 54
2003-02-26 16:52 51°11.948 2°47.054 11 210 10.5 101040 54
2003-02-26 16:53 51°12.04 2°47.363 10 209 10.5 101040 54
2003-02-26 16:54 51°12.134 2°47.669 10.6 211 10.5 101040 54
2003-02-26 16:55 51°12.23 2°47.977 9.3 212 10.5 101050 55
2003-02-26 16:56 51°12.326 2°48.287 9.2 215 10.5 101050 55
2003-02-26 16:57 51°12.425 2°48.595 10.5 209 10.5 101050 55
2003-02-26 16:58 51°12.522 2°48.903 9.9 213 10.5 101050 55
2003-02-26 16:59 51°12.621 2°49.21 9.8 212 10.4 101050 55
2003-02-26 17:00 51°12.72 2°49.517 9.1 212 10.5 101060 55
2003-02-26 17:01 51°12.827 2°49.816 10.1 210 10.4 101060 56
2003-02-26 17:02 51°12.937 2°50.112 10.5 212 10.4 101060 55
2003-02-26 17:03 51°13.049 2°50.404 9.3 213 10.4 101060 55
2003-02-26 17:04 51°13.165 2°50.692 9.8 211 10.5 101060 55
2003-02-26 17:05 51°13.28 2°50.982 9.5 212 10.5 101060 54
2003-02-26 17:06 51°13.395 2°51.274 10.1 211 10.5 101060 53
2003-02-26 17:07 51°13.509 2°51.569 10.6 206 10.5 101060 53
2003-02-26 17:08 51°13.626 2°51.874 10.2 209 10.7 101050 53
2003-02-26 17:09 51°13.738 2°52.176 9.2 209 10.8 101050 52
2003-02-26 17:10 51°13.85 2°52.46 9.5 206 10.8 101060 52
2003-02-26 17:11 51°13.963 2°52.747 9.9 213 10.9 101060 52
2003-02-26 17:12 51°14.076 2°53.039 9.8 213 10.9 101060 52
2003-02-26 17:13 51°14.184 2°53.333 9.9 217 11 101060 52
2003-02-26 17:14 51°14.277 2°53.633 8.7 213 11 101070 52
2003-02-26 17:15 51°14.378 2°53.897 9.6 211 11 101070 52
2003-02-26 17:16 51°14.447 2°54.176 10.3 216 10.9 101060 52
2003-02-26 17:17 51°14.469 2°54.48 10.2 221 10.9 101070 53
2003-02-26 17:18 51°14.445 2°54.786 9.8 227 10.8 101070 54
2003-02-26 17:19 51°14.361 2°55.073 10.2 233 10.6 101070 54
2003-02-26 17:20 51°14.249 2°55.282 7.7 241 10.6 101070 55
2003-02-26 17:21 51°14.151 2°55.385 6.4 244 10.5 101080 55
2003-02-26 17:22 51°14.062 2°55.453 5.7 248 10.5 101080 55
2003-02-26 17:23 51°13.981 2°55.513 5 243 10.5 101080 55
2003-02-26 17:24 51°13.904 2°55.569 4 244 10.4 101080 56
2003-02-26 17:25 51°13.827 2°55.625 4.1 236 10.4 101080 56
2003-02-26 17:26 51°13.757 2°55.694 4.6 239 10.4 101080 56
2003-02-26 17:27 51°13.708 2°55.78 4.2 241 10.4 101090 56